When you browse on this site, cookies collect data to enhance your experience and personalize the content and advertising you see.
Visit our Privacy Policy to learn more. By continuing to use the site, you agree to this use of cookies and data.
  • In United Kingdom
  • List of Countries
  • For 7 days
  • Water Temperature
  • Satellite Maps
  • Weather Map
  • Weather Widgets
  • user-avatar
    Login

    Hourly Weather Madaniymekhnat

    Today, 20 January, Sunday

    Time Temperature Precipitation Wind Pressure Humidity
    00:00 +8°C° 0 mm 1 mps 723 mmHg 53%
    01:00 +8°C° 0 mm 1 mps 723 mmHg 54%
    02:00 +6°C° 0 mm 0 mps 723 mmHg 55%
    03:00 +7°C° 0 mm 1 mps 723 mmHg 57%
    04:00 +6°C° 0 mm 1 mps 723 mmHg 59%
    05:00 +5°C° 0 mm 1 mps 722 mmHg 63%
    06:00 +5°C° 0 mm 1 mps 722 mmHg 67%
    07:00 +5°C° 0 mm 1 mps 722 mmHg 71%
    08:00 +4°C° 0 mm 1 mps 721 mmHg 75%
    09:00 +5°C° 0 mm 1 mps 721 mmHg 71%
    10:00 +6°C° 0 mm 1 mps 721 mmHg 66%
    11:00 +6°C° 0 mm 0 mps 720 mmHg 59%
    12:00 +7°C° 0 mm 2 mps 720 mmHg 56%
    13:00 +8°C° 0 mm 3 mps 720 mmHg 52%
    14:00 +8°C° 0 mm 4 mps 720 mmHg 49%
    15:00 +7°C° 0 mm 4 mps 721 mmHg 52%
    16:00 +6°C° 0 mm 4 mps 722 mmHg 56%
    17:00 +6°C° 0 mm 4 mps 722 mmHg 59%
    18:00 +5°C° 0 mm 4 mps 723 mmHg 62%
    19:00 +5°C° 0 mm 3 mps 724 mmHg 65%
    20:00 +4°C° 0 mm 3 mps 725 mmHg 68%
    21:00 +4°C° 0.6 mm 3 mps 725 mmHg 70%
    22:00 +3°C° 0.6 mm 3 mps 725 mmHg 73%
    23:00 +3°C° 0.6 mm 3 mps 726 mmHg 75%

    Tomorrow, 21 January, Monday

    Time Temperature Precipitation Wind Pressure Humidity
    00:00 +3°C° 0.6 mm 3 mps 726 mmHg 78%
    01:00 +3°C° 0.6 mm 2 mps 727 mmHg 80%
    02:00 +3°C° 0.6 mm 2 mps 727 mmHg 82%
    03:00 +3°C° 0.4 mm 2 mps 728 mmHg 83%
    04:00 +3°C° 0.4 mm 2 mps 729 mmHg 84%
    05:00 +2°C° 0.4 mm 2 mps 729 mmHg 84%
    06:00 +2°C° 0.3 mm 2 mps 730 mmHg 84%
    07:00 +2°C° 0.3 mm 2 mps 730 mmHg 84%
    08:00 +2°C° 0.3 mm 2 mps 731 mmHg 85%
    09:00 +3°C° 0.1 mm 1 mps 731 mmHg 82%
    10:00 +4°C° 0.1 mm 1 mps 731 mmHg 79%
    11:00 +4°C° 0.1 mm 1 mps 731 mmHg 76%
    12:00 +4°C° 0 mm 1 mps 731 mmHg 73%
    13:00 +5°C° 0 mm 1 mps 730 mmHg 71%
    14:00 +6°C° 0 mm 1 mps 730 mmHg 68%
    15:00 +5°C° 0 mm 1 mps 730 mmHg 70%
    16:00 +5°C° 0 mm 1 mps 730 mmHg 73%
    17:00 +5°C° 0 mm 1 mps 731 mmHg 75%
    18:00 +4°C° 0 mm 1 mps 731 mmHg 78%
    19:00 +3°C° 0 mm 0 mps 731 mmHg 80%
    20:00 +2°C° 0 mm 0 mps 731 mmHg 83%
    21:00 +2°C° 0 mm 0 mps 731 mmHg 84%
    22:00 +2°C° 0 mm 0 mps 730 mmHg 85%
    23:00 +1°C° 0 mm 0 mps 730 mmHg 86%

    Day after tomorrow, 22 January, Tuesday

    Time Temperature Precipitation Wind Pressure Humidity
    00:00 +1°C° 0 mm 0 mps 729 mmHg 87%
    01:00 +1°C° 0 mm 0 mps 729 mmHg 87%
    02:00 +1°C° 0 mm 0 mps 728 mmHg 88%
    03:00 +2°C° 0 mm 1 mps 727 mmHg 89%
    04:00 +1°C° 0 mm 1 mps 727 mmHg 90%
    05:00 +1°C° 0 mm 1 mps 726 mmHg 91%
    06:00 +1°C° 0 mm 1 mps 726 mmHg 91%
    07:00 +1°C° 0 mm 1 mps 726 mmHg 91%
    08:00 0°C° 0 mm 0 mps 726 mmHg 91%
    09:00 +2°C° 0 mm 1 mps 725 mmHg 88%
    10:00 +2°C° 0 mm 1 mps 724 mmHg 85%
    11:00 +3°C° 0 mm 1 mps 724 mmHg 82%
    12:00 +4°C° 0 mm 1 mps 723 mmHg 77%
    13:00 +4°C° 0 mm 1 mps 722 mmHg 71%
    14:00 +5°C° 0 mm 1 mps 722 mmHg 66%
    15:00 +5°C° 0 mm 1 mps 722 mmHg 67%
    16:00 +5°C° 0 mm 1 mps 723 mmHg 68%
    17:00 +4°C° 0 mm 1 mps 723 mmHg 70%
    18:00 +4°C° 0 mm 1 mps 723 mmHg 71%
    19:00 +3°C° 0 mm 0 mps 724 mmHg 73%
    20:00 +2°C° 0 mm 0 mps 724 mmHg 74%
    21:00 +2°C° 0 mm 0 mps 724 mmHg 75%
    22:00 +2°C° 0 mm 0 mps 724 mmHg 75%
    23:00 +2°C° 0 mm 0 mps 724 mmHg 75%

    23 January, Wednesday

    Time Temperature Precipitation Wind Pressure Humidity
    00:00 +2°C° 0 mm 0 mps 725 mmHg 75%
    01:00 +2°C° 0 mm 0 mps 725 mmHg 75%
    02:00 +2°C° 0 mm 0 mps 725 mmHg 75%
    03:00 +1°C° 0 mm 0 mps 725 mmHg 76%
    04:00 +1°C° 0 mm 0 mps 725 mmHg 76%
    05:00 +1°C° 0 mm 0 mps 725 mmHg 76%
    06:00 +1°C° 0 mm 0 mps 726 mmHg 76%
    07:00 +1°C° 0 mm 0 mps 726 mmHg 75%
    08:00 +1°C° 0 mm 0 mps 727 mmHg 75%
    09:00 +2°C° 0 mm 0 mps 727 mmHg 69%
    10:00 +3°C° 0 mm 0 mps 726 mmHg 64%
    11:00 +4°C° 0 mm 0 mps 726 mmHg 58%
    12:00 +5°C° 0 mm 0 mps 726 mmHg 55%
    13:00 +6°C° 0 mm 0 mps 726 mmHg 51%
    14:00 +7°C° 0 mm 0 mps 726 mmHg 48%
    15:00 +6°C° 0 mm 0 mps 727 mmHg 50%
    16:00 +6°C° 0 mm 0 mps 727 mmHg 53%
    17:00 +5°C° 0 mm 0 mps 728 mmHg 55%
    18:00 +5°C° 0 mm 0 mps 728 mmHg 57%
    19:00 +4°C° 0 mm 0 mps 729 mmHg 59%
    20:00 +4°C° 0 mm 0 mps 730 mmHg 62%
    21:00 +3°C° 0 mm 0 mps 730 mmHg 63%
    22:00 +4°C° 0 mm 1 mps 730 mmHg 64%
    23:00 +4°C° 0 mm 1 mps 731 mmHg 64%

    24 January, Thursday

    Time Temperature Precipitation Wind Pressure Humidity
    00:00 +3°C° 0 mm 1 mps 731 mmHg 65%
    01:00 +3°C° 0 mm 1 mps 731 mmHg 65%
    02:00 +2°C° 0 mm 0 mps 731 mmHg 65%
    03:00 +2°C° 0 mm 0 mps 731 mmHg 65%
    04:00 +2°C° 0 mm 0 mps 731 mmHg 64%
    05:00 +1°C° 0 mm 0 mps 732 mmHg 64%
    06:00 +2°C° 0 mm 0 mps 732 mmHg 62%
    07:00 +3°C° 0 mm 1 mps 733 mmHg 61%
    08:00 +3°C° 0 mm 1 mps 733 mmHg 59%
    09:00 +4°C° 0 mm 1 mps 733 mmHg 53%
    10:00 +5°C° 0 mm 1 mps 732 mmHg 46%
    11:00 +7°C° 0 mm 1 mps 732 mmHg 40%
    12:00 +8°C° 0 mm 1 mps 732 mmHg 37%
    13:00 +8°C° 0 mm 1 mps 731 mmHg 34%
    14:00 +8°C° 0 mm 0 mps 731 mmHg 30%
    15:00 +8°C° 0 mm 0 mps 731 mmHg 33%
    16:00 +7°C° 0 mm 0 mps 732 mmHg 35%
    17:00 +7°C° 0 mm 0 mps 732 mmHg 37%
    18:00 +6°C° 0 mm 0 mps 733 mmHg 39%
    19:00 +5°C° 0 mm 0 mps 734 mmHg 42%
    20:00 +6°C° 0 mm 1 mps 735 mmHg 44%
    21:00 +5°C° 0 mm 1 mps 734 mmHg 47%
    22:00 +4°C° 0 mm 1 mps 734 mmHg 49%
    23:00 +4°C° 0 mm 1 mps 734 mmHg 51%

    25 January, Friday

    Time Temperature Precipitation Wind Pressure Humidity
    00:00 +4°C° 0 mm 1 mps 734 mmHg 52%
    01:00 +3°C° 0 mm 1 mps 734 mmHg 52%
    02:00 +3°C° 0 mm 1 mps 734 mmHg 52%
    03:00 +3°C° 0 mm 1 mps 734 mmHg 52%
    04:00 +2°C° 0 mm 1 mps 733 mmHg 51%
    05:00 +2°C° 0 mm 1 mps 733 mmHg 50%
    06:00 +2°C° 0 mm 1 mps 733 mmHg 49%
    07:00 +2°C° 0 mm 1 mps 733 mmHg 48%
    08:00 +2°C° 0 mm 1 mps 734 mmHg 47%
    09:00 +4°C° 0 mm 1 mps 733 mmHg 42%
    10:00 +5°C° 0 mm 1 mps 732 mmHg 37%
    11:00 +5°C° 0 mm 0 mps 731 mmHg 32%
    12:00 +6°C° 0 mm 0 mps 731 mmHg 30%
    13:00 +7°C° 0 mm 0 mps 730 mmHg 28%
    14:00 +8°C° 0 mm 0 mps 730 mmHg 26%
    15:00 +8°C° 0 mm 1 mps 730 mmHg 28%
    16:00 +8°C° 0 mm 1 mps 731 mmHg 30%
    17:00 +7°C° 0 mm 1 mps 731 mmHg 32%
    18:00 +6°C° 0 mm 1 mps 732 mmHg 34%
    19:00 +6°C° 0 mm 1 mps 732 mmHg 37%
    20:00 +5°C° 0 mm 1 mps 733 mmHg 39%
    21:00 +4°C° 0 mm 1 mps 732 mmHg 41%
    22:00 +4°C° 0 mm 1 mps 732 mmHg 44%
    23:00 +3°C° 0 mm 1 mps 732 mmHg 46%
    Show more